sat.trackr.live / text

‹ back to catalog

STARLINK-35505

NORAD 66329 · 2025-253L

PAYLOAD ACTIVE UNKNOWN

§ Identity

Operator
Country
US
Launch date
2025-11-06
Launch site
AFETR
Launch vehicle
Mass (kg)
RCS (m²)

Purposes: comms

External: N2YO · Heavens-Above · Gunter

§ Orbital elements

Epoch: 2026-09-20T05:01:01.766208Z

Period
94.27 min
Inclination
43.0034°
Eccentricity
0.0001540
Mean motion
15.27589500 rev/d
Perigee alt
482.0 km
Apogee alt
484.1 km
Semi-major
6,861.2 km
B*
5.8689e-4
RAAN
193.9707°
Arg perigee
264.2945°
Mean anomaly
95.7731°
Rev number
4,999

§ Raw data

STARLINK-355051 66329U 25253L   26263.20904822  .00015927  00000+0  58689-3 0  99912 66329  43.0034 193.9707 0001540 264.2945  95.7731 15.27589500 49995

JSON: /api/v1/satellites/66329 · /tle

For live sub-satellite position, see the globe view (requires WebGL).

§ Visibility from observer

Set your observer location to see the next 7 days of passes ≥ 10°. The values pass through the URL so the page stays shareable.

No JS? Fill the form by hand. The geolocation button needs JavaScript.